Weather in Inder

Russia / Novosibirsk Oblast     54°33′04″N   79°58′39″E
temp.,
°C
wind,
m/s
gust,
m/s
humid.,
%
clouds,
%
prec.,
mm/h
press.,
hPa
HPBL,
m
27 february, sat
sat2701:00−27sw51096100 0.1 1036314
04:00−27sw4996100 0.0 1036272
07:00−27sw4797100 0.1 1036246
10:00−27sw4896100 0.1 1037276
13:00−25sw4695100 0.1 1037336
16:00−24sw3593100 0.0 1037352
19:00−27ssw349679 0.0 103736
22:00−29ssw34960 0.0 103839
28 february, sun
sun2801:00−30s34960 0.0 103742
04:00−29s349645 0.0 103643
07:00−29sse449650 0.0 103658
10:00−26se5109461 0.0 1034200
13:00−21se598980 0.0 1030275
16:00−17se6988100 0.0 1027411
19:00−13se51194100 0.4 1023590
22:00−10se61293100 0.5 1019455
1 march, mon
mon101:00−8se61294100 1.1 1015437
04:00−6se61195100 1.0 1010416
07:00−3sse61297100 3.8 1007633
10:000sw91498100 2.1 1005786
13:000sw91498100 3.5 1005889
16:000wsw81297100 0.8 1007768
19:00−2nw3597100 2.0 1008246
22:00−7nnw2397100 0.9 1011113
2 march, tue
tue201:00−11nnw339695 1.1 101450
04:00−15wnw229799 0.1 101622
07:00−17w2298100 0.1 101820
10:00−16sw2297100 0.0 101862
13:00−13sw3391100 0.1 1018291
16:00−11ssw2289100 0.1 1017339
19:00−15se1197100 0.1 101620
22:00−15e2295100 0.0 101520
3 march, wed
wed301:00−14ene1196100 0.1 101422
04:00−13nne1296100 0.4 101330
07:00−14n1197100 0.8 101420
10:00−13wsw1195100 0.4 1014103
13:00−11wsw2391100 0.8 1015396
16:00−10w3592100 0.3 1016493
19:00−12wsw3596100 0.5 1019150
22:00−15w349787 0.1 102176